Orbital Elements at Epoch 2459200.5 (2020-Dec-17.0) TDB
Reference: JPL 21 (heliocentric ecliptic J2000)
Element | Value | Uncertainty (1-sigma) | Units |
e | .2004883339118248 | 3.5841e-08 | |
a | 2.466114950933616 | 1.2797e-08 | au |
q | 1.971687673185894 | 8.5131e-08 | au |
i | 8.806835724504943 | 4.834e-06 | deg |
node | 226.0834298690929 | 2.3883e-05 | deg |
peri | 264.6914879349001 | 2.9659e-05 | deg |
M | 219.7626388823088 | 2.0372e-05 | deg |
tp | 2459751.535566516063 (2022-Jun-21.03556652) | 8.3243e-05 | TDB |
period | 1414.550319292606 3.87 | 1.101e-05 3.014e-08 | d yr |
n | .2544978394123372 | 1.9809e-09 | deg/d |
Q | 2.960542228681339 | 1.5363e-08 | au |
|
| | Orbit Determination Parameters
Additional Information
|